[[{"header":{"parameterUnit":"m.s-1","parameterCategory":1,"la1":30.2991,"la2":30.254,"lo1":-89.0895,"lo2":-89.0444,"dy":0.0017,"dx":0.0017,"nx":28,"ny":28,"refTime":"2023-09-07T09:00:00:Z","depth":0,"parameterNumber":2,"parameterNumberName":"U-component_of_WINDS"},"data":[0,0,0,0,0,0,0,0,0,0,0,0,0,0,0,0,0,0,0,0,0,0,0,0,0,0,0,0,0,0,0,0,0,0,0,0,0,0,0,0,0,0,0,0,0,0,0,0,0,0,0,0,0,0,0,0,0,0,2.2758,2.2758,0,2.2805,2.2806,2.2806,2.2784,2.2783,2.2782,2.278,2.2826,2.2829,2.2831,0,0,0,0,0,0,0,0,0,0,0,0,0,2.2646,2.2648,2.2758,2.2758,2.2759,2.2805,2.2806,2.2806,2.2784,2.2783,2.2781,2.278,2.2826,2.2828,2.2831,0,0,0,0,0,0,0,0,0,0,0,0,0,2.2694,2.2648,2.2758,2.2754,2.2754,2.2805,2.2806,2.2806,2.2784,2.2783,2.2781,2.2779,2.2825,2.2828,2.2832,2.2889,0,0,2.2842,2.2844,0,0,0,0,0,0,0,0,2.2691,2.2698,2.2754,2.2754,2.2754,2.2787,2.2783,2.2834,2.2785,2.2773,2.278,2.2778,2.2815,2.2819,2.2831,2.2891,2.2893,2.2843,2.2845,2.2846,2.2847,0,0,0,0,0,0,0,2.2688,2.2696,2.2776,2.2754,2.2755,2.2748,2.2753,2.2792,2.2803,2.2774,2.2772,2.2778,2.2814,2.2828,2.2832,2.2894,2.2843,2.2846,2.2848,2.2849,2.3,2.3002,0,0,0,0,0,0,2.2685,2.2693,2.2775,2.2778,2.2718,2.2752,2.2757,2.2778,2.2803,2.2805,2.278,2.2777,2.2823,2.2828,2.2834,2.29,2.2846,2.2849,2.2851,2.2998,2.3,2.3002,0,0,0,0,0,0,2.2682,2.2692,2.2773,2.2735,2.2745,2.2756,2.2779,2.278,2.2794,2.2807,2.2809,2.2792,2.2822,2.2829,2.2875,2.2902,2.2851,2.2854,2.2996,2.2999,2.3001,2.3035,0,0,0,0,0,0,2.2679,2.2692,2.2714,2.2736,2.2747,2.2814,2.2781,2.2782,2.28,2.2797,2.2819,2.2821,2.2821,2.287,2.2878,2.2906,2.2857,2.2993,2.2997,2.3,2.3032,2.3039,2.3045,0,0,0,0,0,2.2675,2.2722,2.2716,2.2726,2.2776,2.2816,2.2822,2.2822,2.2802,2.2824,2.2833,2.282,2.2898,2.2875,2.2884,2.2913,2.2991,2.2996,2.3,2.3029,2.3038,2.3045,0,0,0,0,0,0,2.2703,2.2725,2.2718,2.2773,2.2793,2.2812,2.284,2.2832,2.2857,2.2853,2.2851,2.2856,2.2903,2.2913,2.2887,2.2968,2.2941,2.2948,2.296,2.2969,2.2975,2.2971,2.286,0,0,0,0,0,2.2716,2.2748,2.2765,2.2812,2.2822,2.283,2.2847,2.2845,2.2865,2.2873,2.2885,2.2904,2.2932,2.2951,2.2979,2.3034,2.3037,2.3058,2.3065,2.307,2.3075,2.3102,2.3111,2.3016,2.3016,2.3016,0,0,2.2742,2.2758,2.2778,2.2818,2.2833,2.2864,2.2837,2.2872,2.2895,2.2878,2.2922,2.2931,2.2952,2.3003,2.3025,2.3012,2.3102,2.3076,2.308,2.3082,2.3108,2.3117,2.3125,2.3019,2.3019,2.3018,0,0,2.2806,2.2822,2.2862,2.2878,2.2901,2.2905,2.2915,2.2935,2.2941,2.2985,2.2972,2.2999,2.3049,2.3064,2.3078,2.3146,2.3134,2.3155,2.3189,2.3216,2.3223,2.323,2.3252,2.326,2.316,2.316,2.316,0,2.2836,2.2884,2.2884,2.2919,2.2936,2.2923,2.2962,2.2977,2.3008,2.3019,2.3004,2.3065,2.3079,2.3131,2.3147,2.316,2.3169,2.3152,2.3223,2.3229,2.3235,2.3256,2.3265,2.3162,2.3162,2.3162,2.3162,0,2.2918,2.2951,2.2981,2.301,2.3031,2.3068,2.3072,2.3092,2.3088,2.3094,2.3138,2.3153,2.3182,2.3195,2.3192,2.3246,2.3237,2.3223,2.3195,2.3246,2.3266,2.3274,2.3166,2.3165,2.3164,2.3164,0,0,2.3001,2.3029,2.304,2.3052,2.3076,2.3101,2.3137,2.3166,2.3182,2.3204,2.3232,2.3274,2.326,2.3276,2.3275,2.3298,2.3348,2.328,2.3281,2.3291,2.3407,2.3416,2.3426,2.3342,2.3343,2.3344,2.3404,0,2.3064,2.3128,2.3128,2.3186,2.3216,2.3203,2.3234,2.3251,2.3257,2.3282,2.3289,2.3317,2.3298,2.3307,2.333,2.3337,2.3371,2.3333,2.3366,2.3368,2.336,2.3437,2.3447,2.3503,2.3412,2.3414,2.3415,0,2.3148,2.3171,2.3232,2.325,2.3262,2.3291,2.3316,2.3341,2.3359,2.3361,2.3379,2.3373,2.3408,2.338,2.3427,2.3401,2.3415,2.342,2.3422,2.3424,2.3393,2.3438,2.3521,2.3529,2.3427,2.3426,2.3425,0,2.3199,2.3246,2.3288,2.33,2.3322,2.3342,2.3352,2.3369,2.3385,2.3407,2.3418,2.3444,2.3457,2.3477,2.3477,2.3457,2.3524,2.3497,2.3525,2.3525,2.3538,2.3537,2.3622,2.355,2.355,2.355,2.355,0,2.327,2.3307,2.3312,2.3337,2.3378,2.3377,2.3417,2.3425,2.344,2.3466,2.3457,2.3482,2.3482,2.3506,2.3507,2.3544,2.3551,2.3552,2.3552,2.3552,2.3552,2.356,2.3555,2.3552,2.3552,2.3551,2.3551,0,2.3334,2.3339,2.3383,2.3401,2.3406,2.3435,2.3449,2.3472,2.3477,2.351,2.3518,2.3525,2.3553,2.3556,2.3588,2.3589,2.3633,2.3629,2.3627,2.3625,2.3653,2.3649,2.3745,2.3756,2.3678,2.3679,2.368,0,2.3377,2.3406,2.3426,2.3442,2.3454,2.3481,2.3498,2.3498,2.3515,2.3538,2.3558,2.3585,2.3607,2.3652,2.3659,2.3684,2.3679,2.3711,2.3683,2.3682,2.3677,2.3675,2.3676,2.3716,2.3717,2.3718,2.3718,0,2.3454,2.3454,2.3479,2.3504,2.3525,2.3544,2.3563,2.3577,2.3579,2.3599,2.3627,2.3644,2.3677,2.3703,2.3727,2.3736,2.3727,2.3727,2.3734,2.3734,2.3731,2.3731,2.364,2.3725,2.3724,2.3723,2.3723,2.3723,2.3508,2.3531,2.3549,2.3576,2.359,2.3607,2.3629,2.3637,2.3661,2.3687,2.3686,2.3717,2.3733,2.3764,2.3774,2.3798,2.3787,2.3798,2.3801,2.3803,2.3805,2.3729,2.3802,2.3802,2.3802,2.3802,2.3802,0,2.3582,2.3592,2.3617,2.3643,2.3664,2.3654,2.3674,2.3691,2.3719,2.3735,2.3756,2.3788,2.3813,2.3822,2.3846,2.3863,2.3859,2.3869,2.3867,2.3869,2.3814,2.3804,2.3872,2.3872,2.3872,2.3872,2.3872,2.3872,2.3623,2.3661,2.3664,2.3709,2.3718,2.3749,2.376,2.3775,2.3788,2.3824,2.3845,2.3851,2.3863,2.3888,2.391,2.3912,2.392,2.3932,2.3932,2.388,2.3873,2.3866,2.3857,2.3934,2.3934,2.3984,2.3984,2.3985]},{"header":{"parameterUnit":"m.s-1","parameterCategory":1,"la1":30.2991,"la2":30.254,"lo1":-89.0895,"lo2":-89.0444,"dy":0.0017,"dx":0.0017,"nx":28,"ny":28,"refTime":"2023-09-07T09:00:00:Z","depth":0,"parameterNumber":3,"parameterNumberName":"V-component_of_WINDS"},"data":[0,0,0,0,0,0,0,0,0,0,0,0,0,0,0,0,0,0,0,0,0,0,0,0,0,0,0,0,0,0,0,0,0,0,0,0,0,0,0,0,0,0,0,0,0,0,0,0,0,0,0,0,0,0,0,0,0,0,-0.4483,-0.4482,0,-0.4447,-0.4446,-0.4446,-0.4418,-0.4418,-0.4417,-0.4417,-0.438,-0.4379,-0.4378,0,0,0,0,0,0,0,0,0,0,0,0,0,-0.4526,-0.4526,-0.4483,-0.4482,-0.4482,-0.4447,-0.4446,-0.4446,-0.4418,-0.4418,-0.4417,-0.4417,-0.438,-0.4379,-0.4378,0,0,0,0,0,0,0,0,0,0,0,0,0,-0.4501,-0.4525,-0.4483,-0.4464,-0.4461,-0.4447,-0.4446,-0.4446,-0.4418,-0.4418,-0.4417,-0.4417,-0.438,-0.4379,-0.4378,-0.438,0,0,-0.4375,-0.4374,0,0,0,0,0,0,0,0,-0.4502,-0.4499,-0.4467,-0.4465,-0.4463,-0.4436,-0.4448,-0.4424,-0.4418,-0.4434,-0.4417,-0.4417,-0.4399,-0.4396,-0.439,-0.4378,-0.4376,-0.4375,-0.4374,-0.4374,-0.4373,0,0,0,0,0,0,0,-0.4504,-0.45,-0.4468,-0.4466,-0.4464,-0.4457,-0.4453,-0.4443,-0.4419,-0.4433,-0.4431,-0.4427,-0.4398,-0.4392,-0.4389,-0.4376,-0.4375,-0.4374,-0.4373,-0.4373,-0.4363,-0.4363,0,0,0,0,0,0,-0.4509,-0.4502,-0.447,-0.4467,-0.4482,-0.4456,-0.4452,-0.4445,-0.4419,-0.4415,-0.4427,-0.4426,-0.4394,-0.4391,-0.4388,-0.4388,-0.4374,-0.4373,-0.4372,-0.4363,-0.4363,-0.4364,0,0,0,0,0,0,-0.451,-0.4506,-0.4471,-0.4484,-0.4479,-0.4456,-0.4449,-0.4445,-0.4439,-0.4415,-0.4411,-0.4426,-0.4393,-0.439,-0.4382,-0.4386,-0.4372,-0.4371,-0.4362,-0.4363,-0.4363,-0.4388,0,0,0,0,0,0,-0.4511,-0.4507,-0.4507,-0.4484,-0.4479,-0.4466,-0.4449,-0.4444,-0.4437,-0.4434,-0.4412,-0.4408,-0.4393,-0.4384,-0.4381,-0.4385,-0.437,-0.4362,-0.4362,-0.4363,-0.4387,-0.439,-0.4392,0,0,0,0,0,-0.4513,-0.4515,-0.4507,-0.4503,-0.4479,-0.4466,-0.4463,-0.4445,-0.4437,-0.4437,-0.4423,-0.4409,-0.4387,-0.4383,-0.438,-0.4383,-0.4361,-0.4362,-0.4363,-0.4386,-0.4389,-0.4392,0,0,0,0,0,0,-0.4539,-0.4512,-0.4503,-0.4498,-0.4485,-0.4461,-0.4461,-0.4449,-0.4437,-0.4435,-0.4413,-0.4409,-0.4404,-0.4393,-0.439,-0.4383,-0.4372,-0.4372,-0.4391,-0.4394,-0.4396,-0.4399,-0.4369,0,0,0,0,0,-0.4544,-0.4536,-0.4513,-0.4511,-0.4505,-0.4484,-0.4478,-0.4466,-0.4451,-0.4445,-0.4429,-0.4415,-0.4405,-0.4399,-0.4388,-0.4385,-0.438,-0.4386,-0.4389,-0.4391,-0.4391,-0.4389,-0.4392,-0.4366,-0.4366,-0.4366,0,0,-0.4555,-0.4539,-0.4535,-0.4516,-0.4504,-0.4497,-0.448,-0.4472,-0.4466,-0.4444,-0.4436,-0.4424,-0.4407,-0.4402,-0.4399,-0.4393,-0.4397,-0.4392,-0.4394,-0.4393,-0.439,-0.4393,-0.4395,-0.4367,-0.4367,-0.4367,0,0,-0.457,-0.4557,-0.4554,-0.4543,-0.4525,-0.4512,-0.4511,-0.449,-0.4481,-0.4473,-0.4456,-0.4449,-0.4431,-0.442,-0.4412,-0.4424,-0.4411,-0.4421,-0.4434,-0.4432,-0.4434,-0.4436,-0.444,-0.4442,-0.4422,-0.4422,-0.4422,0,-0.4585,-0.4573,-0.4554,-0.4548,-0.454,-0.452,-0.4517,-0.4506,-0.4486,-0.4481,-0.4475,-0.4453,-0.444,-0.4432,-0.4435,-0.4429,-0.4428,-0.4423,-0.4436,-0.4437,-0.4438,-0.4442,-0.4444,-0.4423,-0.4423,-0.4423,-0.4422,0,-0.4593,-0.4585,-0.4585,-0.4566,-0.4558,-0.4553,-0.4534,-0.4528,-0.4516,-0.4503,-0.4495,-0.4479,-0.4465,-0.4462,-0.4451,-0.4453,-0.445,-0.444,-0.4428,-0.4442,-0.4446,-0.4447,-0.4425,-0.4424,-0.4424,-0.4424,0,0,-0.4623,-0.4594,-0.4595,-0.4586,-0.4565,-0.4559,-0.4553,-0.454,-0.4535,-0.4522,-0.4517,-0.4503,-0.4494,-0.4485,-0.4472,-0.447,-0.4481,-0.446,-0.446,-0.4465,-0.4483,-0.449,-0.4492,-0.4473,-0.4473,-0.4473,-0.4484,0,-0.4635,-0.4624,-0.4607,-0.4602,-0.4594,-0.4575,-0.457,-0.4557,-0.4545,-0.4537,-0.4523,-0.4514,-0.4502,-0.4497,-0.4495,-0.448,-0.4484,-0.4479,-0.4468,-0.4467,-0.4472,-0.4494,-0.4502,-0.4513,-0.4485,-0.4485,-0.4486,0,-0.4647,-0.4636,-0.463,-0.461,-0.4606,-0.4602,-0.4589,-0.4581,-0.4566,-0.4557,-0.4547,-0.4533,-0.4527,-0.4516,-0.4507,-0.4504,-0.4498,-0.449,-0.449,-0.4489,-0.4477,-0.4493,-0.4516,-0.4518,-0.4487,-0.4487,-0.4487,0,-0.467,-0.4653,-0.4647,-0.464,-0.4617,-0.4615,-0.4605,-0.459,-0.4583,-0.4571,-0.4566,-0.4553,-0.4546,-0.4537,-0.452,-0.4514,-0.4513,-0.4501,-0.4505,-0.4506,-0.4506,-0.4506,-0.4529,-0.4502,-0.4502,-0.4502,-0.4502,0,-0.4685,-0.4682,-0.4657,-0.4653,-0.465,-0.4631,-0.4627,-0.4616,-0.4602,-0.4596,-0.4579,-0.4573,-0.4551,-0.4543,-0.453,-0.4524,-0.4521,-0.4514,-0.4511,-0.4516,-0.4517,-0.4511,-0.451,-0.4503,-0.4503,-0.4502,-0.4502,0,-0.471,-0.4693,-0.4685,-0.4664,-0.4659,-0.4657,-0.4639,-0.4635,-0.4622,-0.4614,-0.4611,-0.4591,-0.4581,-0.4563,-0.4548,-0.4539,-0.4536,-0.453,-0.4541,-0.4539,-0.4544,-0.4544,-0.4565,-0.4567,-0.4539,-0.4539,-0.454,0,-0.472,-0.4718,-0.4696,-0.4691,-0.4682,-0.4674,-0.4667,-0.4648,-0.4641,-0.4624,-0.4622,-0.4611,-0.46,-0.4585,-0.4569,-0.4557,-0.4551,-0.4559,-0.4549,-0.4554,-0.4551,-0.4552,-0.4551,-0.4561,-0.4562,-0.4562,-0.4562,0,-0.4741,-0.4733,-0.4723,-0.4711,-0.4703,-0.4693,-0.4681,-0.4678,-0.4656,-0.465,-0.4639,-0.4631,-0.4616,-0.4605,-0.4591,-0.4581,-0.4568,-0.4566,-0.4566,-0.4571,-0.4578,-0.4574,-0.4547,-0.4565,-0.4565,-0.4565,-0.4564,-0.4564,-0.4759,-0.4756,-0.4741,-0.4731,-0.472,-0.471,-0.4705,-0.4692,-0.4683,-0.4669,-0.4658,-0.4649,-0.4634,-0.4614,-0.4605,-0.4597,-0.4591,-0.4591,-0.4592,-0.4592,-0.4594,-0.4579,-0.4594,-0.4594,-0.4594,-0.4594,-0.4594,0,-0.4779,-0.4768,-0.4759,-0.4744,-0.4736,-0.4725,-0.4712,-0.4706,-0.4698,-0.4685,-0.4676,-0.4664,-0.4653,-0.4637,-0.4625,-0.4622,-0.4616,-0.4619,-0.4619,-0.4617,-0.46,-0.4601,-0.4624,-0.4624,-0.4624,-0.4624,-0.4624,-0.4624,-0.4789,-0.4783,-0.4773,-0.4762,-0.4751,-0.4741,-0.4735,-0.4725,-0.4715,-0.4703,-0.4694,-0.4683,-0.4669,-0.4656,-0.4646,-0.4641,-0.4638,-0.4643,-0.4637,-0.4621,-0.4618,-0.4616,-0.4616,-0.4642,-0.4643,-0.4654,-0.4654,-0.4654]}]]